Change the Weather History Date:

Tuesday, February 5, 2013

  Actual Average Record
Temperature  
Mean Temperature 11 °F 18 °F  
Max Temperature 19 °F 29 °F 51 °F (2006)
Min Temperature 3 °F 8 °F -18 °F (1946)
Degree Days  
Heating Degree Days 54 47  
Month to date heating degree days 238 235  
Since 1 July heating degree days 4454 4642  
Cooling Degree Days 0 0  
Month to date cooling degree days 0 0  
Year to date cooling degree days 0 0  
Moisture  
Dew Point -6 °F    
Average Humidity 48    
Maximum Humidity 66    
Minimum Humidity 30    
Precipitation  
Precipitation 0.00 in 0.08 in 1.14 in (2006)
Month to date precipitation T 0.44  
Year to date precipitation 0.87 3.33  
Snow  
Snow 0.00 in 0.50 in 8.00 in (1949)
Month to date snowfall T 2.7  
Since 1 July snowfall 25.6 38.7  
Snow Depth 0.00 in    
Sea Level Pressure  
Sea Level Pressure 29.98 in    
Wind  
Wind Speed 5 mph (West)    
Max Wind Speed 16 mph    
Max Gust Speed 23 mph    
Visibility 10 miles    
Events      
T = Trace of Precipitation, MM = Missing Value Source: NWS Daily Summary

Daily Weather History Graph

Daily Weather History Graph

Search for Another Location

Airport or City:

Trip Planner

Search our weather history database for the weather conditions in past years. The results will help you decide how hot, cold, wet, or windy it might be!

Date:

Astronomy

Feb. 05, 2013 Rise Set
Actual Time 6:49 AM EST 4:49 PM EST
Civil Twilight 6:18 AM EST 5:20 PM EST
Nautical Twilight 5:43 AM EST 5:55 PM EST
Astronomical Twilight 5:09 AM EST 6:29 PM EST
Moon 2:32 AM EST (2/5) 11:59 AM EST (2/5)
Length of Visible Light 11h 01m
Length of Day
10h 00m
Waning Crescent, 27% of the Moon is Illuminated
Feb 5
Waning Crescent
Feb 10
New
Feb 17
First Quarter
Feb 25
Full
Mar 4
Last Quarter

Hourly Weather History & Observations

Time (EST) Temp. Windchill Dew Point Humidity Pressure Visibility Wind Dir Wind Speed Gust Speed Precip Events Conditions
12:53 AM 10.0 °F -3.7 °F -8.0 °F 44% 29.83 in 10.0 mi West 10.4 mph 17.3 mph N/A   Clear
1:53 AM 8.1 °F -2.0 °F -7.1 °F 50% 29.86 in 10.0 mi West 5.8 mph - N/A   Clear
2:53 AM 7.0 °F -1.7 °F -7.1 °F 53% 29.88 in 10.0 mi West 4.6 mph - N/A   Clear
3:53 AM 6.1 °F - -8.0 °F 53% 29.90 in 10.0 mi Calm Calm - N/A   Clear
4:53 AM 3.9 °F -3.4 °F -7.1 °F 60% 29.92 in 10.0 mi West 3.5 mph - N/A   Clear
5:53 AM 3.9 °F - -7.1 °F 60% 29.95 in 10.0 mi Calm Calm - N/A   Clear
6:53 AM 3.9 °F -3.4 °F -8.0 °F 58% 29.97 in 10.0 mi West 3.5 mph - N/A   Partly Cloudy
7:53 AM 5.0 °F - -5.1 °F 63% 30.00 in 10.0 mi Calm Calm - N/A   Partly Cloudy
8:53 AM 8.1 °F -2.0 °F -7.1 °F 50% 30.03 in 10.0 mi WNW 5.8 mph - N/A   Partly Cloudy
9:53 AM 10.4 °F 2.2 °F -7.6 °F 44% 30.01 in 10.0 mi Variable 4.6 mph - N/A   Partly Cloudy
10:53 AM 14.0 °F 3.9 °F -9.9 °F 34% 30.03 in 10.0 mi WNW 6.9 mph - N/A   Partly Cloudy
11:53 AM 16.0 °F 4.4 °F -9.9 °F 31% 30.02 in 10.0 mi NW 9.2 mph 16.1 mph N/A   Partly Cloudy
12:53 PM 17.1 °F 5.0 °F -9.9 °F 30% 30.00 in 10.0 mi West 10.4 mph 16.1 mph N/A   Partly Cloudy
1:53 PM 17.1 °F 6.6 °F -9.9 °F 30% 30.00 in 10.0 mi West 8.1 mph - N/A   Partly Cloudy
2:53 PM 18.0 °F - -9.9 °F 29% 30.01 in 10.0 mi Calm Calm - N/A   Partly Cloudy
3:53 PM 17.1 °F 8.7 °F -9.9 °F 30% 30.01 in 10.0 mi NW 5.8 mph - N/A   Partly Cloudy
4:53 PM 14.0 °F - -8.0 °F 37% 30.01 in 10.0 mi Calm Calm - N/A   Partly Cloudy
5:53 PM 12.0 °F - -6.0 °F 44% 30.02 in 10.0 mi Calm Calm - N/A   Partly Cloudy
6:53 PM 10.0 °F - -2.9 °F 56% 30.03 in 10.0 mi Calm Calm - N/A   Partly Cloudy
7:53 PM 12.0 °F - -2.0 °F 53% 30.02 in 10.0 mi Calm Calm - N/A   Mostly Cloudy
8:53 PM 14.0 °F - -0.9 °F 52% 30.02 in 10.0 mi Calm Calm - N/A   Mostly Cloudy
9:53 PM 12.9 °F - 1.0 °F 59% 30.04 in 10.0 mi Calm Calm - N/A   Overcast
10:53 PM 12.0 °F - 1.0 °F 61% 30.03 in 10.0 mi Calm Calm - N/A   Mostly Cloudy
11:53 PM 12.9 °F - 1.0 °F 59% 30.02 in 10.0 mi Calm Calm - N/A   Overcast